Wind_Speed
9 9 9 9 9 10 10 9 9 8 8 8 8 8 8 8 8 8 8 8 8 9 8 8 8 8 8 8 8 8 8 7 7 7 7 8 8 8 8 8 8 8 7 7
10 10 10 10 10 10 10 10 9 8 9 10 9 9 8 8 8 8 8 8 9 9 9 8 8 8 8 8 7 7 8 8 7 7 8 7 7 8 8 7 8 8 8 8
11 10 11 11 11 11 10 10 10 10 10 11 11 10 10 9 9 9 8 8 8 9 9 9 8 8 8 9 9 8 8 8 8 8 8 7 7 8 7 8 8 8 8 8
12 12 12 12 12 12 11 11 11 11 11 11 11 11 10 10 10 9 9 8 8 8 8 8 8 8 8 9 9 8 8 9 9 9 9 8 8 8 8 8 9 8 8 8
13 12 13 12 12 12 12 12 12 12 12 12 12 11 10 10 10 10 9 8 8 9 9 8 8 8 8 9 9 9 9 9 10 10 10 9 9 9 9 9 9 9 9 9
14 14 14 13 13 14 13 13 13 13 13 13 12 12 11 10 10 10 9 9 9 9 9 9 8 9 9 9 10 10 10 10 10 10 10 10 10 9 9 9 9 9 9 9
14 14 14 14 14 14 14 14 14 14 14 14 13 13 12 11 11 10 10 10 10 9 9 9 8 9 9 10 10 10 10 11 10 10 10 10 10 9 9 9 9 9 9 9
15 16 15 15 15 15 15 15 15 15 14 13 13 13 12 11 11 10 10 10 10 9 10 10 10 10 10 10 10 10 10 10 10 10 10 10 10 9 9 9 10 9 9 10
16 16 15 15 15 15 15 15 15 16 15 14 14 13 13 12 11 11 11 10 10 10 10 11 10 10 11 11 10 10 10 10 10 10 10 10 9 10 10 10 10 10 10 10
17 17 16 15 15 16 16 16 16 17 16 15 15 15 14 13 12 11 11 10 10 10 10 11 11 11 10 11 11 11 11 11 10 10 10 9 9 10 10 10 10 11 10 11
17 18 17 16 16 16 16 17 18 18 18 17 17 16 14 13 13 12 11 11 10 10 10 10 10 10 10 10 10 10 10 10 10 10 10 10 10 10 10 11 11 10 10 10
17 18 18 17 16 17 17 18 19 19 18 18 18 16 14 14 14 13 12 12 11 10 10 10 10 11 10 10 10 10 10 10 11 11 11 10 10 10 10 11 10 10 10 10
17 18 18 18 18 17 18 18 19 20 19 19 18 17 15 15 15 14 13 12 12 11 11 11 11 12 12 11 11 11 11 11 11 11 10 10 10 11 11 11 11 10 10 10
17 18 19 18 18 18 19 19 20 21 21 20 19 19 17 17 18 17 16 14 13 13 12 13 13 13 13 13 12 12 12 11 11 11 11 11 11 11 11 11 11 11 11 10
19 19 19 18 18 19 19 19 19 20 21 21 20 20 19 19 19 18 17 16 15 14 14 14 14 14 14 14 13 13 13 13 12 12 12 11 11 11 10 10 10 11 11 11
20 21 20 20 19 19 20 20 20 21 21 22 21 20 19 19 20 19 19 17 17 16 16 16 16 16 15 15 14 14 14 14 13 13 13 12 12 11 11 11 11 11 11 11
21 22 22 21 21 23 22 20 21 22 22 22 21 19 20 20 20 20 20 19 18 18 18 17 17 16 16 16 15 15 15 14 14 14 14 13 13 12 13 13 12 12 11 11
21 22 22 23 23 25 21 20 22 22 22 22 21 20 20 20 20 20 20 20 19 19 18 18 17 17 17 17 16 16 16 15 15 14 14 14 14 13 13 13 13 13 13 12
23 23 24 24 24 23 20 19 20 21 21 21 20 19 20 20 21 21 21 21 20 20 20 19 18 18 19 18 18 17 17 17 16 16 16 15 15 14 14 14 14 13 14 14
23 23 23 23 24 22 20 19 20 21 21 21 20 19 19 19 20 20 21 21 20 21 21 21 20 19 19 19 20 19 18 18 17 17 17 17 16 15 15 15 15 14 14 15
23 23 23 24 24 22 19 19 20 21 19 20 20 19 19 19 18 19 20 20 21 21 21 22 21 21 21 21 21 21 20 19 18 18 18 18 17 16 16 16 15 15 16 16
24 24 23 24 24 22 20 20 20 20 19 20 19 19 19 18 18 19 19 20 21 22 22 22 22 22 21 22 22 21 21 20 19 19 19 19 18 18 17 17 17 17 17 17
25 24 23 23 21 20 20 21 21 20 20 20 19 19 19 19 19 19 19 20 21 22 22 23 23 22 22 22 22 22 21 21 21 20 20 19 19 19 18 18 18 18 18 18
26 26 25 24 22 21 21 22 22 22 21 20 20 20 20 20 20 20 20 21 22 23 23 24 24 24 24 24 23 23 23 22 22 22 21 21 20 20 20 19 19 19 20 20
26 26 25 25 24 23 23 23 22 22 21 21 20 21 21 21 21 21 21 21 22 23 24 25 25 25 25 26 25 24 24 24 24 24 23 22 22 21 21 21 21 21 21 21
27 27 27 26 25 25 24 23 23 23 22 22 21 21 21 21 22 22 22 22 22 23 24 25 25 25 26 26 26 26 26 26 26 25 25 24 23 23 23 22 22 22 23 23
Wind_Direction
241 244 247 247 245 244 243 244 244 246 251 254 256 258 257 259 260 258 261 261 260 259 260 261 261 260 259 258 260 261 263 262 258 255 259 258 255 252 251 254 248 249 254 260
240 241 242 243 245 246 246 245 246 249 254 258 256 259 258 260 262 261 259 258 259 260 258 262 264 261 255 255 261 261 258 259 257 256 259 261 255 256 256 256 255 253 254 264
243 244 245 246 247 247 246 250 252 252 253 255 257 257 257 259 262 263 260 256 256 257 260 264 259 256 257 259 262 260 257 252 251 255 256 254 255 261 260 255 261 262 260 263
243 246 249 250 250 250 250 252 252 252 252 255 257 256 252 256 258 262 263 258 257 257 257 261 260 256 255 257 259 259 257 254 251 252 251 254 256 258 258 256 258 261 260 264
247 249 250 252 252 251 251 252 253 252 252 254 256 256 252 253 256 258 260 261 258 259 257 256 255 254 253 254 258 259 255 252 251 252 253 254 257 259 259 257 258 260 260 263
246 248 249 250 250 251 252 254 257 251 251 252 255 255 253 253 257 258 257 258 259 257 257 257 255 252 255 258 262 259 254 251 249 248 251 254 258 258 258 258 259 261 259 261
244 248 250 252 253 253 254 254 253 251 252 256 256 256 258 256 257 257 255 254 256 254 254 255 255 254 255 256 258 256 253 250 246 246 250 253 255 255 257 257 258 261 259 257
248 248 250 251 253 256 253 251 251 253 255 257 256 258 260 256 256 258 257 255 252 253 253 254 255 256 257 256 254 256 254 249 248 250 250 253 254 254 258 259 256 256 257 257
250 250 250 250 252 253 251 249 250 252 254 255 254 257 258 256 251 253 255 254 251 252 254 254 256 258 258 255 254 254 252 248 249 251 253 250 251 253 258 261 256 257 259 261
251 250 249 249 248 248 249 249 247 250 255 257 254 256 256 257 254 252 252 252 251 251 256 259 258 258 258 256 254 254 250 248 249 247 248 248 251 256 260 263 260 258 260 261
253 252 249 248 247 249 249 247 247 250 253 256 256 256 256 254 252 253 255 256 251 248 252 255 257 259 258 254 253 253 249 247 248 248 247 248 253 257 258 261 258 256 261 262
256 256 253 250 249 250 250 251 251 253 255 257 258 257 254 255 254 254 256 255 252 249 253 257 257 255 254 250 250 249 246 245 246 247 248 248 252 256 259 260 254 256 259 262
258 259 256 252 250 249 249 249 251 253 254 253 254 254 251 253 256 254 252 249 249 249 247 251 253 253 252 250 249 247 244 245 245 248 249 251 253 256 260 260 256 257 261 262
257 259 259 260 255 251 250 249 249 251 252 253 254 256 255 256 256 253 253 251 248 250 250 250 251 250 250 249 248 245 247 247 246 246 246 250 254 256 260 262 258 257 259 260
256 259 259 258 258 254 253 252 251 252 254 255 256 256 257 255 252 250 249 250 248 248 250 249 249 248 248 247 246 246 248 246 245 243 244 248 252 255 257 260 261 259 259 257
257 260 260 259 258 255 252 251 252 254 256 256 255 255 256 251 250 250 247 248 249 249 248 248 249 249 249 246 245 245 246 246 244 241 243 246 251 255 257 259 262 264 262 257
258 259 259 260 259 258 255 254 253 254 255 256 255 254 252 250 249 250 248 246 248 249 248 248 249 248 247 245 244 242 242 245 247 242 240 244 251 255 256 257 260 262 264 263
259 260 260 261 259 258 260 255 255 254 253 256 257 253 252 250 250 251 249 247 249 251 249 246 248 245 245 245 244 241 241 243 246 245 243 246 251 256 258 257 258 261 263 265
260 260 261 262 261 260 256 256 257 256 254 256 256 253 253 252 250 248 248 248 250 251 250 247 246 246 246 244 243 240 239 242 246 246 246 249 251 253 255 258 259 261 263 264
259 258 259 261 261 260 258 258 258 256 252 252 249 245 250 251 250 248 248 248 248 248 247 246 244 245 244 244 244 241 240 243 245 245 247 251 254 254 255 257 259 260 264 264
256 256 257 260 262 261 259 257 258 256 253 249 247 246 251 251 253 249 248 248 248 247 245 245 244 245 244 245 245 243 242 243 243 245 248 251 254 255 256 258 259 261 264 266
254 255 257 260 262 263 261 256 257 259 255 250 248 249 252 255 254 252 250 248 247 247 246 245 243 245 245 245 243 243 242 242 242 243 247 251 254 255 257 260 261 263 266 268
256 258 259 259 262 263 259 257 258 259 257 251 247 250 253 254 254 252 251 249 248 249 247 245 246 246 245 245 246 245 243 243 244 245 247 250 253 255 258 261 263 265 267 269
257 259 258 258 256 256 257 256 257 259 256 249 249 252 255 256 255 254 255 253 252 251 249 248 248 247 246 247 246 247 244 243 244 247 248 250 254 256 258 261 263 266 268 270
254 255 255 255 255 255 256 258 259 258 253 251 251 255 257 259 260 259 258 256 255 254 252 250 248 249 249 248 248 248 245 245 245 247 249 251 254 257 259 261 263 266 269 270
251 251 253 254 255 256 255 254 255 253 252 252 252 255 257 260 262 260 259 258 256 255 252 250 249 249 250 249 249 249 248 248 248 248 250 251 253 257 260 262 264 266 269 270
Height
5865 5867 5867 5867 5868 5868 5868 5868 5869 5870 5870 5870 5870 5870 5871 5870 5871 5871 5871 5871 5872 5872 5873 5873 5873 5873 5874 5874 5874 5874 5874 5874 5874 5875 5875 5875 5875 5875 5876 5876 5876 5876 5876 5876
5864 5864 5865 5865 5865 5865 5865 5866 5866 5867 5867 5867 5867 5868 5868 5868 5868 5868 5869 5869 5869 5870 5870 5870 5870 5871 5871 5871 5871 5872 5872 5872 5873 5873 5873 5873 5873 5873 5873 5873 5874 5874 5874 5874
5861 5862 5861 5862 5862 5862 5863 5863 5864 5864 5864 5864 5865 5865 5866 5866 5865 5866 5866 5867 5867 5867 5867 5868 5868 5869 5869 5869 5869 5870 5870 5870 5871 5871 5871 5871 5872 5872 5872 5872 5872 5872 5872 5872
5857 5858 5858 5859 5859 5859 5860 5860 5861 5861 5861 5861 5863 5862 5864 5863 5863 5864 5864 5864 5865 5865 5865 5865 5866 5866 5867 5867 5867 5868 5868 5868 5868 5869 5869 5870 5870 5870 5870 5870 5870 5870 5870 5870
5854 5854 5855 5855 5856 5856 5857 5857 5857 5858 5858 5858 5859 5859 5861 5860 5860 5861 5861 5861 5862 5862 5863 5863 5863 5864 5864 5865 5865 5865 5866 5866 5866 5867 5867 5867 5868 5868 5868 5868 5868 5868 5868 5868
5850 5850 5851 5852 5852 5852 5853 5854 5854 5854 5854 5855 5856 5856 5857 5857 5858 5858 5858 5859 5859 5859 5860 5860 5861 5861 5862 5863 5863 5863 5863 5864 5864 5864 5864 5865 5865 5865 5865 5865 5865 5865 5865 5865
5846 5846 5847 5848 5848 5849 5850 5851 5851 5850 5851 5851 5852 5852 5853 5854 5854 5854 5855 5855 5856 5857 5857 5857 5858 5858 5859 5860 5860 5860 5860 5861 5861 5861 5862 5862 5863 5863 5863 5863 5863 5863 5863 5863
5842 5843 5843 5844 5844 5845 5845 5846 5847 5848 5848 5848 5848 5848 5850 5850 5850 5851 5851 5852 5853 5854 5854 5854 5855 5855 5856 5857 5857 5857 5857 5858 5858 5859 5859 5860 5860 5860 5860 5860 5860 5860 5860 5860
5837 5839 5839 5839 5840 5841 5841 5841 5842 5843 5843 5844 5844 5844 5845 5846 5846 5847 5848 5848 5849 5850 5851 5851 5852 5852 5853 5854 5854 5854 5855 5855 5856 5856 5857 5857 5857 5858 5858 5858 5858 5858 5857 5858
5832 5833 5835 5835 5835 5836 5837 5837 5838 5838 5838 5839 5840 5840 5841 5842 5843 5844 5844 5845 5846 5847 5848 5848 5848 5849 5850 5850 5851 5851 5852 5852 5853 5853 5854 5854 5854 5855 5855 5855 5855 5855 5855 5855
5826 5828 5830 5830 5830 5831 5832 5833 5833 5834 5834 5835 5835 5838 5838 5838 5839 5840 5840 5841 5842 5843 5844 5844 5845 5845 5846 5847 5848 5848 5849 5849 5850 5851 5851 5852 5852 5852 5852 5852 5852 5852 5852 5852
5821 5822 5823 5825 5826 5826 5827 5828 5828 5829 5830 5830 5830 5835 5834 5834 5835 5836 5837 5838 5838 5839 5840 5841 5842 5842 5843 5844 5844 5845 5846 5846 5847 5848 5848 5849 5849 5849 5849 5849 5848 5849 5849 5849
5816 5817 5818 5819 5822 5822 5821 5822 5823 5824 5825 5825 5826 5830 5830 5830 5830 5831 5832 5833 5834 5835 5837 5838 5838 5839 5839 5840 5841 5842 5842 5843 5844 5844 5845 5846 5846 5846 5846 5846 5846 5846 5846 5846
5811 5812 5813 5814 5815 5815 5815 5816 5817 5818 5819 5820 5821 5823 5825 5825 5826 5826 5828 5829 5830 5831 5833 5834 5835 5835 5836 5837 5837 5838 5839 5839 5840 5841 5842 5843 5843 5843 5843 5843 5843 5843 5843 5843
5806 5806 5807 5808 5808 5809 5809 5810 5811 5812 5813 5814 5816 5817 5820 5820 5821 5822 5823 5824 5825 5827 5828 5829 5830 5831 5832 5833 5834 5834 5835 5836 5837 5837 5838 5839 5839 5840 5840 5840 5839 5839 5839 5840
5800 5801 5801 5802 5803 5802 5803 5804 5805 5806 5807 5808 5810 5812 5814 5815 5816 5817 5818 5819 5820 5822 5823 5825 5826 5827 5828 5829 5830 5831 5831 5832 5833 5834 5835 5835 5836 5836 5836 5836 5836 5836 5836 5836
5794 5795 5795 5796 5796 5796 5797 5799 5799 5800 5801 5802 5803 5807 5807 5808 5810 5811 5812 5814 5815 5816 5818 5820 5821 5822 5823 5824 5825 5826 5827 5828 5829 5830 5831 5831 5832 5832 5833 5833 5833 5833 5833 5833
5788 5788 5789 5789 5790 5789 5794 5793 5792 5793 5794 5795 5797 5799 5800 5802 5803 5804 5806 5808 5809 5811 5812 5814 5815 5817 5818 5819 5820 5821 5823 5824 5825 5826 5827 5827 5828 5828 5828 5829 5829 5829 5829 5829
5781 5782 5782 5782 5782 5783 5786 5786 5786 5786 5788 5789 5791 5793 5794 5795 5797 5798 5800 5801 5803 5805 5807 5808 5810 5811 5812 5813 5815 5816 5817 5819 5820 5821 5822 5823 5823 5824 5824 5824 5824 5824 5825 5825
5775 5775 5776 5775 5775 5777 5781 5780 5780 5781 5782 5783 5784 5786 5788 5789 5790 5793 5794 5795 5797 5799 5801 5802 5804 5805 5806 5808 5809 5811 5812 5813 5815 5816 5817 5818 5818 5819 5819 5820 5820 5820 5820 5820
5768 5768 5769 5769 5769 5770 5774 5774 5774 5776 5778 5778 5779 5780 5782 5783 5785 5787 5787 5789 5791 5792 5794 5796 5797 5799 5801 5802 5803 5805 5806 5808 5809 5810 5811 5813 5813 5814 5814 5815 5815 5815 5815 5815
5761 5761 5762 5762 5763 5766 5767 5767 5768 5769 5770 5771 5773 5775 5776 5778 5779 5780 5781 5782 5784 5786 5787 5789 5791 5793 5794 5795 5797 5798 5800 5802 5803 5804 5806 5807 5808 5809 5809 5809 5810 5810 5810 5810
5753 5755 5755 5757 5759 5759 5759 5760 5761 5762 5764 5765 5767 5769 5770 5772 5773 5773 5775 5776 5778 5779 5781 5782 5784 5786 5788 5789 5791 5792 5794 5795 5797 5798 5800 5801 5802 5803 5803 5804 5804 5804 5804 5804
5746 5747 5748 5749 5751 5752 5752 5753 5754 5755 5757 5759 5761 5763 5764 5765 5766 5767 5769 5770 5771 5772 5774 5775 5777 5779 5781 5782 5784 5785 5787 5789 5790 5792 5793 5795 5796 5797 5797 5798 5798 5798 5798 5798
5739 5740 5740 5742 5744 5745 5746 5747 5748 5749 5751 5753 5755 5756 5757 5759 5759 5761 5762 5763 5764 5765 5766 5768 5770 5771 5773 5775 5777 5778 5780 5781 5783 5785 5787 5788 5789 5790 5791 5791 5791 5792 5792 5791
5731 5732 5734 5735 5737 5738 5740 5741 5742 5743 5745 5747 5749 5750 5751 5751 5753 5754 5755 5755 5756 5757 5759 5760 5762 5764 5765 5767 5769 5770 5772 5774 5776 5778 5779 5781 5782 5783 5783 5784 5784 5784 5784 5784